"read_dt","SO2 (ppb)","flags","PMT voltage (V)","lamp voltage (V)","lamp intensity (Hz)","internal temp (C)","react chamber temp (C)","sample flow (l/min)","pres (mmHg)","SO2 bkg (ppb)","SO2 coefficient"
2014-11-23 00:00:00,1995E-3,5C000000,-0724,0834,12210,028.9,045.5,0.477,740.5,01.18,0.508
2014-11-23 00:01:00,1937E-3,5C000000,-0724,0834,11926,028.9,045.5,0.477,740.5,01.18,0.508
2014-11-23 00:02:00,2010E-3,5C000000,-0724,0835,12150,029.0,045.5,0.477,740.4,01.18,0.508
2014-11-23 00:03:00,1984E-3,5C000000,-0724,0834,12165,029.0,045.5,0.477,740.3,01.18,0.508
2014-11-23 00:04:00,2036E-3,5C000000,-0724,0833,12237,029.0,045.5,0.477,740.4,01.18,0.508
2014-11-23 00:05:00,2072E-3,5C000000,-0724,0835,12208,029.0,045.5,0.477,740.5,01.18,0.508
2014-11-23 00:06:00,2060E-3,5C000000,-0724,0834,12141,028.9,045.5,0.477,740.5,01.18,0.508
2014-11-23 00:07:00,1973E-3,5C000000,-0724,0833,12088,028.9,045.5,0.477,740.5,01.18,0.508
2014-11-23 00:08:00,2013E-3,5C000000,-0724,0834,12105,028.9,045.5,0.477,740.5,01.18,0.508
2014-11-23 00:09:00,2028E-3,5C000000,-0724,0834,12180,028.9,045.5,0.477,740.5,01.18,0.508
2014-11-23 00:10:00,2052E-3,5C000000,-0724,0834,12209,028.9,045.4,0.477,740.5,01.18,0.508
2014-11-23 00:11:00,1940E-3,5C000000,-0724,0834,12312,028.9,045.5,0.477,740.5,01.18,0.508
2014-11-23 00:12:00,1941E-3,5C000000,-0724,0833,12162,029.0,045.5,0.477,740.3,01.18,0.508
2014-11-23 00:13:00,1966E-3,5C000000,-0724,0835,12151,029.0,045.5,0.477,740.3,01.18,0.508
2014-11-23 00:14:00,1922E-3,5C000000,-0724,0834,12022,029.0,045.5,0.477,740.3,01.18,0.508
2014-11-23 00:15:00,2073E-3,5C000000,-0724,0834,12237,029.0,045.5,0.477,740.3,01.18,0.508
2014-11-23 00:16:00,1961E-3,5C000000,-0724,0834,12018,029.1,045.5,0.476,740.2,01.18,0.508
2014-11-23 00:17:00,1947E-3,5C000000,-0724,0833,11994,029.1,045.5,0.477,740.2,01.18,0.508
2014-11-23 00:18:00,1918E-3,5C000000,-0724,0834,12205,029.0,045.5,0.477,740.2,01.18,0.508
2014-11-23 00:19:00,2013E-3,5C000000,-0724,0833,12115,029.0,045.4,0.477,740.2,01.18,0.508
2014-11-23 00:20:00,2140E-3,5C000000,-0724,0834,12198,029.0,045.5,0.477,740.2,01.18,0.508
2014-11-23 00:21:00,1977E-3,5C000000,-0724,0834,12023,029.0,045.5,0.477,740.2,01.18,0.508
2014-11-23 00:22:00,2077E-3,5C000000,-0724,0834,12251,029.1,045.5,0.476,740.1,01.18,0.508
2014-11-23 00:23:00,1983E-3,5C000000,-0724,0834,12098,029.1,045.5,0.477,740.1,01.18,0.508
2014-11-23 00:24:00,1946E-3,5C000000,-0724,0834,12216,029.1,045.5,0.477,740.1,01.18,0.508
2014-11-23 00:25:00,1980E-3,5C000000,-0724,0834,12329,029.1,045.5,0.477,740.1,01.18,0.508
2014-11-23 00:26:00,2117E-3,5C000000,-0724,0834,12147,029.1,045.5,0.477,740.1,01.18,0.508
2014-11-23 00:27:00,1839E-3,5C000000,-0724,0833,12213,029.1,045.5,0.476,740.1,01.18,0.508
2014-11-23 00:28:00,2097E-3,5C000000,-0724,0834,12161,029.1,045.5,0.476,740.2,01.18,0.508
2014-11-23 00:29:00,1834E-3,5C000000,-0724,0834,12085,029.0,045.5,0.477,740.2,01.18,0.508
2014-11-23 00:30:00,1924E-3,5C000000,-0724,0833,12211,029.0,045.5,0.477,740.2,01.18,0.508
2014-11-23 00:31:00,2031E-3,5C000000,-0724,0835,12138,028.9,045.5,0.477,740.2,01.18,0.508
2014-11-23 00:32:00,1951E-3,5C000000,-0724,0834,12335,029.0,045.5,0.476,740.1,01.18,0.508
2014-11-23 00:33:00,1964E-3,5C000000,-0724,0834,12277,029.0,045.5,0.477,740.1,01.18,0.508
2014-11-23 00:34:00,1859E-3,5C000000,-0724,0834,12266,029.0,045.5,0.477,740.1,01.18,0.508
2014-11-23 00:35:00,1997E-3,5C000000,-0724,0834,12114,029.0,045.5,0.477,740.1,01.18,0.508
2014-11-23 00:36:00,1928E-3,5C000000,-0724,0834,12116,029.1,045.5,0.477,740.1,01.18,0.508
2014-11-23 00:37:00,1977E-3,5C000000,-0724,0834,12244,029.1,045.5,0.476,740.1,01.18,0.508
2014-11-23 00:38:00,1899E-3,5C000000,-0724,0833,12085,029.0,045.5,0.477,740.1,01.18,0.508
2014-11-23 00:39:00,1950E-3,5C000000,-0724,0834,12204,029.0,045.5,0.477,740.1,01.18,0.508
2014-11-23 00:40:00,1858E-3,5C000000,-0724,0834,11849,029.1,045.5,0.477,740.1,01.18,0.508
2014-11-23 00:41:00,1934E-3,5C000000,-0724,0835,12080,029.1,045.5,0.477,740.0,01.18,0.508
2014-11-23 00:42:00,1901E-3,5C000000,-0724,0834,11998,029.0,045.5,0.476,740.1,01.18,0.508
2014-11-23 00:43:00,2018E-3,5C000000,-0724,0834,12230,029.1,045.5,0.476,740.1,01.18,0.508
2014-11-23 00:44:00,1917E-3,5C000000,-0724,0833,12351,029.1,045.5,0.477,740.1,01.18,0.508
2014-11-23 00:45:00,1985E-3,5C000000,-0724,0834,12223,029.1,045.5,0.477,740.1,01.18,0.508
2014-11-23 00:46:00,2176E-3,5C000000,-0724,0834,12325,029.1,045.5,0.477,740.0,01.18,0.508
2014-11-23 00:47:00,1935E-3,5C000000,-0724,0834,12201,029.1,045.5,0.476,740.0,01.18,0.508
2014-11-23 00:48:00,1964E-3,5C000000,-0724,0833,12270,029.1,045.5,0.476,740.0,01.18,0.508
2014-11-23 00:49:00,2055E-3,5C000000,-0724,0833,12200,029.2,045.5,0.476,740.0,01.18,0.508
2014-11-23 00:50:00,2049E-3,5C000000,-0724,0834,11989,029.1,045.5,0.476,740.0,01.18,0.508
2014-11-23 00:51:00,2055E-3,5C000000,-0724,0834,12295,029.1,045.5,0.477,740.0,01.18,0.508
2014-11-23 00:52:00,1933E-3,5C000000,-0724,0833,12216,029.1,045.5,0.477,740.0,01.18,0.508
2014-11-23 00:53:00,1963E-3,5C000000,-0724,0833,12136,029.1,045.5,0.476,740.0,01.18,0.508
2014-11-23 00:54:00,2056E-3,5C000000,-0724,0834,12264,029.1,045.5,0.476,740.0,01.18,0.508
2014-11-23 00:55:00,1966E-3,5C000000,-0724,0834,12188,029.1,045.5,0.477,740.0,01.18,0.508
2014-11-23 00:56:00,1894E-3,5C000000,-0724,0833,12198,029.1,045.5,0.477,740.0,01.18,0.508
2014-11-23 00:57:00,2003E-3,5C000000,-0724,0834,12224,029.1,045.5,0.477,740.0,01.18,0.508
2014-11-23 00:58:00,2084E-3,5C000000,-0724,0834,12158,029.1,045.5,0.476,739.9,01.18,0.508
2014-11-23 00:59:00,1994E-3,5C000000,-0724,0834,12045,029.1,045.5,0.476,739.9,01.18,0.508
2014-11-23 01:00:00,1859E-3,5C000000,-0724,0834,12038,029.1,045.5,0.477,739.9,01.18,0.508
2014-11-23 01:01:00,1939E-3,5C000000,-0724,0833,12295,029.1,045.5,0.477,739.9,01.18,0.508
2014-11-23 01:02:00,1916E-3,5C000000,-0724,0833,12113,029.2,045.5,0.477,739.9,01.18,0.508
2014-11-23 01:03:00,1961E-3,5C000000,-0724,0834,12273,029.2,045.5,0.476,739.9,01.18,0.508
2014-11-23 01:04:00,1974E-3,5C000000,-0724,0833,12197,029.1,045.4,0.476,739.9,01.18,0.508
2014-11-23 01:05:00,1953E-3,5C000000,-0724,0833,12173,029.2,045.5,0.476,739.9,01.18,0.508
2014-11-23 01:06:00,2010E-3,5C000000,-0724,0833,12196,029.1,045.5,0.477,739.9,01.18,0.508
2014-11-23 01:07:00,2024E-3,5C000000,-0724,0834,12175,029.2,045.5,0.477,739.9,01.18,0.508
2014-11-23 01:08:00,2144E-3,5C000000,-0724,0832,12252,029.2,045.5,0.477,739.9,01.18,0.508
2014-11-23 01:09:00,1879E-3,5C000000,-0724,0833,12306,029.2,045.5,0.476,739.9,01.18,0.508
2014-11-23 01:10:00,2047E-3,5C000000,-0724,0833,12208,029.2,045.5,0.476,739.9,01.18,0.508
2014-11-23 01:11:00,2064E-3,5C000000,-0724,0834,12089,029.2,045.5,0.477,739.9,01.18,0.508
2014-11-23 01:12:00,2016E-3,5C000000,-0724,0833,12116,029.2,045.5,0.477,739.8,01.18,0.508
2014-11-23 01:13:00,2073E-3,5C000000,-0724,0833,12239,029.2,045.5,0.476,739.8,01.18,0.508
2014-11-23 01:14:00,2118E-3,5C000000,-0724,0834,12062,029.2,045.5,0.476,739.8,01.18,0.508
2014-11-23 01:15:00,2045E-3,5C000000,-0724,0834,12250,029.3,045.5,0.476,739.8,01.18,0.508
2014-11-23 01:16:00,1989E-3,5C000000,-0724,0835,12236,029.3,045.5,0.476,739.8,01.18,0.508
2014-11-23 01:17:00,2076E-3,5C000000,-0724,0834,12173,029.3,045.5,0.477,739.8,01.18,0.508
2014-11-23 01:18:00,2036E-3,5C000000,-0724,0833,11996,029.3,045.5,0.476,739.8,01.18,0.508
2014-11-23 01:19:00,1958E-3,5C000000,-0724,0834,12243,029.3,045.5,0.476,739.9,01.18,0.508
2014-11-23 01:20:00,1932E-3,5C000000,-0724,0834,12205,029.4,045.5,0.476,739.9,01.18,0.508
2014-11-23 01:21:00,1873E-3,5C000000,-0724,0833,12139,029.4,045.5,0.476,739.9,01.18,0.508
2014-11-23 01:22:00,2041E-3,5C000000,-0724,0833,12162,029.4,045.5,0.476,739.9,01.18,0.508
2014-11-23 01:23:00,1961E-3,5C000000,-0724,0833,12232,029.5,045.5,0.476,739.8,01.18,0.508
2014-11-23 01:24:00,2140E-3,5C000000,-0724,0834,12051,029.4,045.5,0.476,739.8,01.18,0.508
2014-11-23 01:25:00,2092E-3,5C000000,-0724,0834,12316,029.5,045.5,0.475,739.8,01.18,0.508
2014-11-23 01:26:00,2118E-3,5C000000,-0724,0833,12130,029.5,045.5,0.475,739.8,01.18,0.508
2014-11-23 01:27:00,2118E-3,5C000000,-0724,0834,12220,029.5,045.5,0.476,739.8,01.18,0.508
2014-11-23 01:28:00,2090E-3,5C000000,-0724,0834,12223,029.5,045.5,0.476,739.9,01.18,0.508
2014-11-23 01:29:00,2013E-3,5C000000,-0724,0834,12025,029.5,045.5,0.476,739.9,01.18,0.508
2014-11-23 01:30:00,2034E-3,5C000000,-0724,0834,12193,029.5,045.5,0.475,739.9,01.18,0.508
2014-11-23 01:31:00,2187E-3,5C000000,-0724,0834,12287,029.5,045.5,0.475,739.8,01.18,0.508
2014-11-23 01:32:00,2077E-3,5C000000,-0724,0834,12151,029.6,045.5,0.475,739.8,01.18,0.508
2014-11-23 01:33:00,1939E-3,5C000000,-0724,0834,12094,029.6,045.5,0.476,739.9,01.18,0.508
2014-11-23 01:34:00,2082E-3,5C000000,-0724,0833,12159,029.6,045.5,0.475,739.8,01.18,0.508
2014-11-23 01:35:00,2089E-3,5C000000,-0724,0835,12224,029.6,045.5,0.475,739.8,01.18,0.508
2014-11-23 01:36:00,2088E-3,5C000000,-0724,0833,12007,029.6,045.5,0.476,739.8,01.18,0.508
2014-11-23 01:37:00,2132E-3,5C000000,-0724,0833,12183,029.7,045.5,0.475,739.8,01.18,0.508
2014-11-23 01:38:00,2124E-3,5C000000,-0724,0833,12215,029.7,045.5,0.475,739.8,01.18,0.508
2014-11-23 01:39:00,2065E-3,5C000000,-0724,0834,12178,029.7,045.5,0.476,739.8,01.18,0.508
2014-11-23 01:40:00,1989E-3,5C000000,-0724,0834,12196,029.7,045.5,0.475,739.7,01.18,0.508
2014-11-23 01:41:00,2002E-3,5C000000,-0724,0834,12129,029.7,045.5,0.475,739.7,01.18,0.508
2014-11-23 01:42:00,2000E-3,5C000000,-0724,0833,12260,029.7,045.5,0.475,739.7,01.18,0.508
2014-11-23 01:43:00,2024E-3,5C000000,-0724,0834,12056,029.8,045.5,0.475,739.7,01.18,0.508
2014-11-23 01:44:00,2035E-3,5C000000,-0724,0833,12288,029.8,045.5,0.475,739.7,01.18,0.508
2014-11-23 01:45:00,2004E-3,5C000000,-0724,0834,12152,029.8,045.5,0.475,739.7,01.18,0.508
2014-11-23 01:46:00,1960E-3,5C000000,-0724,0833,12209,029.8,045.5,0.475,739.7,01.18,0.508
2014-11-23 01:47:00,1946E-3,5C000000,-0724,0834,12282,029.8,045.5,0.475,739.7,01.18,0.508
2014-11-23 01:48:00,2002E-3,5C000000,-0724,0834,12166,029.8,045.5,0.475,739.7,01.18,0.508
2014-11-23 01:49:00,1968E-3,5C000000,-0724,0834,12191,029.8,045.5,0.475,739.7,01.18,0.508
2014-11-23 01:50:00,2013E-3,5C000000,-0724,0833,12119,029.8,045.5,0.475,739.7,01.18,0.508
2014-11-23 01:51:00,1947E-3,5C000000,-0724,0834,12242,029.9,045.5,0.475,739.7,01.18,0.508
2014-11-23 01:52:00,2026E-3,5C000000,-0724,0834,12227,029.9,045.5,0.474,739.7,01.18,0.508
2014-11-23 01:53:00,1981E-3,5C000000,-0724,0834,12056,029.9,045.5,0.475,739.7,01.18,0.508
2014-11-23 01:54:00,2097E-3,5C000000,-0724,0834,12013,029.9,045.5,0.475,739.7,01.18,0.508
2014-11-23 01:55:00,2029E-3,5C000000,-0724,0834,12356,029.9,045.5,0.474,739.7,01.18,0.508
2014-11-23 01:56:00,2066E-3,5C000000,-0724,0833,12097,029.9,045.5,0.475,739.7,01.18,0.508
2014-11-23 01:57:00,2005E-3,5C000000,-0724,0833,12170,029.9,045.5,0.475,739.7,01.18,0.508
2014-11-23 01:58:00,1929E-3,5C000000,-0724,0834,12178,029.9,045.5,0.474,739.7,01.18,0.508
2014-11-23 01:59:00,1987E-3,5C000000,-0724,0834,12314,029.9,045.5,0.475,739.7,01.18,0.508
2014-11-23 02:00:00,1891E-3,5C000000,-0724,0834,12209,029.9,045.5,0.475,739.7,01.18,0.508
2014-11-23 02:01:00,1915E-3,5C000000,-0724,0834,12163,029.9,045.5,0.474,739.7,01.18,0.508
2014-11-23 02:02:00,1897E-3,5C000000,-0724,0834,12241,029.9,045.5,0.475,739.7,01.18,0.508
2014-11-23 02:03:00,2031E-3,5C000000,-0724,0833,12220,030.0,045.5,0.475,739.7,01.18,0.508
2014-11-23 02:04:00,2062E-3,5C000000,-0724,0834,12063,029.9,045.5,0.474,739.7,01.18,0.508
2014-11-23 02:05:00,2039E-3,5C000000,-0724,0834,12070,030.0,045.5,0.475,739.6,01.18,0.508
2014-11-23 02:06:00,1974E-3,5C000000,-0724,0834,12257,029.9,045.5,0.475,739.7,01.18,0.508
2014-11-23 02:07:00,2036E-3,5C000000,-0724,0834,12136,030.0,045.5,0.474,739.6,01.18,0.508
2014-11-23 02:08:00,2042E-3,5C000000,-0724,0833,12138,029.9,045.5,0.474,739.7,01.18,0.508
2014-11-23 02:09:00,1994E-3,5C000000,-0724,0834,12322,030.0,045.5,0.475,739.7,01.18,0.508
2014-11-23 02:10:00,2014E-3,5C000000,-0724,0833,12236,030.0,045.5,0.475,739.7,01.18,0.508
2014-11-23 02:11:00,1981E-3,5C000000,-0724,0833,12165,029.9,045.5,0.474,739.7,01.18,0.508
2014-11-23 02:12:00,2012E-3,5C000000,-0724,0834,12166,029.9,045.5,0.475,739.7,01.18,0.508
2014-11-23 02:13:00,2026E-3,5C000000,-0724,0834,12128,029.9,045.5,0.475,739.7,01.18,0.508
2014-11-23 02:14:00,2038E-3,5C000000,-0724,0834,12186,029.9,045.5,0.475,739.7,01.18,0.508
2014-11-23 02:15:00,1957E-3,5C000000,-0724,0833,12163,029.9,045.5,0.475,739.7,01.18,0.508
2014-11-23 02:16:00,2031E-3,5C000000,-0724,0834,12216,029.8,045.5,0.474,739.7,01.18,0.508
2014-11-23 02:17:00,2021E-3,5C000000,-0724,0833,12299,029.8,045.5,0.474,739.7,01.18,0.508
2014-11-23 02:18:00,1983E-3,5C000000,-0724,0833,12176,029.8,045.5,0.475,739.7,01.18,0.508
2014-11-23 02:19:00,2083E-3,5C000000,-0724,0834,12161,029.8,045.5,0.475,739.7,01.18,0.508
2014-11-23 02:20:00,2114E-3,5C000000,-0724,0834,12333,029.8,045.5,0.475,739.7,01.18,0.508
2014-11-23 02:21:00,1895E-3,5C000000,-0724,0833,12232,029.8,045.5,0.475,739.7,01.18,0.508
2014-11-23 02:22:00,2033E-3,5C000000,-0724,0834,12180,029.8,045.5,0.475,739.7,01.18,0.508
2014-11-23 02:23:00,2059E-3,5C000000,-0724,0835,12138,029.8,045.5,0.475,739.7,01.18,0.508
2014-11-23 02:24:00,1912E-3,5C000000,-0724,0834,12220,029.8,045.5,0.475,739.7,01.18,0.508
2014-11-23 02:25:00,1940E-3,5C000000,-0724,0833,12299,029.8,045.5,0.475,739.7,01.18,0.508
2014-11-23 02:26:00,1973E-3,5C000000,-0724,0834,12269,029.7,045.5,0.475,739.7,01.18,0.508
2014-11-23 02:27:00,2048E-3,5C000000,-0724,0834,12204,029.8,045.5,0.475,739.7,01.18,0.508
2014-11-23 02:28:00,1935E-3,5C000000,-0724,0834,12166,029.8,045.5,0.475,739.7,01.18,0.508
2014-11-23 02:29:00,2014E-3,5C000000,-0724,0833,12132,029.8,045.5,0.475,739.7,01.18,0.508
2014-11-23 02:30:00,1960E-3,5C000000,-0724,0834,12181,029.8,045.5,0.475,739.6,01.18,0.508
2014-11-23 02:31:00,2147E-3,5C000000,-0724,0833,12068,029.8,045.5,0.475,739.6,01.18,0.508
2014-11-23 02:32:00,1941E-3,5C000000,-0724,0834,12109,029.8,045.5,0.475,739.6,01.18,0.508
2014-11-23 02:33:00,2008E-3,5C000000,-0724,0834,12253,029.8,045.5,0.475,739.6,01.18,0.508
2014-11-23 02:34:00,2082E-3,5C000000,-0724,0835,12149,029.8,045.5,0.475,739.6,01.18,0.508
2014-11-23 02:35:00,2059E-3,5C000000,-0724,0835,11994,029.9,045.5,0.475,739.6,01.18,0.508
2014-11-23 02:36:00,2075E-3,5C000000,-0724,0834,12232,029.9,045.5,0.475,739.6,01.18,0.508
2014-11-23 02:37:00,2189E-3,5C000000,-0724,0833,12081,029.8,045.5,0.475,739.6,01.18,0.508
2014-11-23 02:38:00,2069E-3,5C000000,-0724,0834,12252,029.9,045.5,0.474,739.6,01.18,0.508
2014-11-23 02:39:00,2090E-3,5C000000,-0724,0834,12202,029.8,045.5,0.475,739.6,01.18,0.508
2014-11-23 02:40:00,2005E-3,5C000000,-0724,0833,12140,029.9,045.5,0.475,739.6,01.18,0.508
2014-11-23 02:41:00,2009E-3,5C000000,-0724,0834,11951,029.9,045.5,0.475,739.6,01.18,0.508
2014-11-23 02:42:00,2127E-3,5C000000,-0724,0833,12093,029.9,045.5,0.475,739.6,01.18,0.508
2014-11-23 02:43:00,2072E-3,5C000000,-0724,0833,12295,029.9,045.5,0.475,739.6,01.18,0.508
2014-11-23 02:44:00,2082E-3,5C000000,-0724,0834,12246,029.9,045.5,0.475,739.6,01.18,0.508
2014-11-23 02:45:00,2179E-3,5C000000,-0724,0834,12059,029.9,045.5,0.475,739.5,01.18,0.508
2014-11-23 02:46:00,1998E-3,5C000000,-0724,0833,12219,029.9,045.5,0.474,739.5,01.18,0.508
2014-11-23 02:47:00,2084E-3,5C000000,-0724,0833,12056,029.9,045.5,0.475,739.5,01.18,0.508
2014-11-23 02:48:00,2002E-3,5C000000,-0724,0833,11948,029.9,045.5,0.475,739.5,01.18,0.508
2014-11-23 02:49:00,2131E-3,5C000000,-0724,0834,12167,029.9,045.5,0.474,739.5,01.18,0.508
2014-11-23 02:50:00,2077E-3,5C000000,-0724,0834,12273,029.9,045.5,0.475,739.5,01.18,0.508
2014-11-23 02:51:00,2018E-3,5C000000,-0724,0833,12216,029.9,045.5,0.475,739.5,01.18,0.508
2014-11-23 02:52:00,2021E-3,5C000000,-0724,0834,12055,029.9,045.5,0.474,739.5,01.18,0.508
2014-11-23 02:53:00,2002E-3,5C000000,-0724,0834,12120,029.9,045.5,0.475,739.5,01.18,0.508
2014-11-23 02:54:00,2094E-3,5C000000,-0724,0834,12150,029.9,045.5,0.475,739.5,01.18,0.508
2014-11-23 02:55:00,2140E-3,5C000000,-0724,0834,12231,029.9,045.5,0.474,739.5,01.18,0.508
2014-11-23 02:56:00,2141E-3,5C000000,-0724,0835,12132,029.9,045.5,0.474,739.5,01.18,0.508
2014-11-23 02:57:00,2018E-3,5C000000,-0724,0834,12078,029.9,045.5,0.475,739.5,01.18,0.508
2014-11-23 02:58:00,2011E-3,5C000000,-0724,0834,12143,029.9,045.5,0.475,739.5,01.18,0.508
2014-11-23 02:59:00,2041E-3,5C000000,-0724,0834,12086,030.0,045.5,0.474,739.5,01.18,0.508
2014-11-23 03:00:00,1955E-3,5C000000,-0724,0834,12165,030.0,045.5,0.475,739.5,01.18,0.508
2014-11-23 03:01:00,1968E-3,5C000000,-0724,0834,12179,030.0,045.5,0.475,739.5,01.18,0.508
2014-11-23 03:02:00,1982E-3,5C000000,-0724,0834,12145,030.0,045.5,0.474,739.5,01.18,0.508
2014-11-23 03:03:00,2100E-3,5C000000,-0724,0834,12210,029.9,045.5,0.475,739.5,01.18,0.508
2014-11-23 03:04:00,1996E-3,5C000000,-0724,0834,11925,030.0,045.5,0.475,739.5,01.18,0.508
2014-11-23 03:05:00,2041E-3,5C000000,-0724,0835,12078,030.0,045.5,0.474,739.5,01.18,0.508
2014-11-23 03:06:00,2116E-3,5C000000,-0724,0834,12301,030.0,045.5,0.474,739.5,01.18,0.508
2014-11-23 03:07:00,2096E-3,5C000000,-0724,0834,12174,030.0,045.5,0.475,739.5,01.18,0.508
2014-11-23 03:08:00,2001E-3,5C000000,-0724,0834,12256,030.0,045.5,0.475,739.5,01.18,0.508
2014-11-23 03:09:00,2039E-3,5C000000,-0724,0835,12128,030.0,045.5,0.474,739.5,01.18,0.508
2014-11-23 03:10:00,2148E-3,5C000000,-0724,0834,12275,030.0,045.5,0.474,739.6,01.18,0.508
2014-11-23 03:11:00,2057E-3,5C000000,-0724,0833,12028,030.0,045.5,0.475,739.6,01.18,0.508
2014-11-23 03:12:00,2118E-3,5C000000,-0724,0834,12085,030.0,045.5,0.475,739.6,01.18,0.508
2014-11-23 03:13:00,2089E-3,5C000000,-0724,0834,12091,030.0,045.5,0.474,739.5,01.18,0.508
2014-11-23 03:14:00,1984E-3,5C000000,-0724,0834,12105,030.0,045.5,0.474,739.5,01.18,0.508
2014-11-23 03:15:00,2050E-3,5C000000,-0724,0834,12261,030.0,045.5,0.475,739.5,01.18,0.508
2014-11-23 03:16:00,2017E-3,5C000000,-0724,0835,12123,030.0,045.5,0.475,739.5,01.18,0.508
2014-11-23 03:17:00,2094E-3,5C000000,-0724,0834,11982,030.0,045.5,0.474,739.5,01.18,0.508
2014-11-23 03:18:00,2201E-3,5C000000,-0724,0834,12117,030.0,045.5,0.474,739.5,01.18,0.508
2014-11-23 03:19:00,2062E-3,5C000000,-0724,0833,11987,030.0,045.5,0.475,739.5,01.18,0.508
2014-11-23 03:20:00,1945E-3,5C000000,-0724,0834,12150,030.0,045.5,0.475,739.5,01.18,0.508
2014-11-23 03:21:00,2230E-3,5C000000,-0724,0835,12299,030.0,045.5,0.474,739.5,01.18,0.508
2014-11-23 03:22:00,1999E-3,5C000000,-0724,0833,12118,030.0,045.5,0.475,739.5,01.18,0.508
2014-11-23 03:23:00,2216E-3,5C000000,-0724,0834,12191,030.0,045.5,0.475,739.5,01.18,0.508
2014-11-23 03:24:00,2043E-3,5C000000,-0724,0834,12229,030.0,045.5,0.474,739.5,01.18,0.508
2014-11-23 03:25:00,2012E-3,5C000000,-0724,0834,12106,030.0,045.5,0.474,739.4,01.18,0.508
2014-11-23 03:26:00,2141E-3,5C000000,-0724,0835,12209,030.0,045.5,0.475,739.5,01.18,0.508
2014-11-23 03:27:00,2062E-3,5C000000,-0724,0834,11885,030.0,045.5,0.475,739.5,01.18,0.508
2014-11-23 03:28:00,2113E-3,5C000000,-0724,0834,12115,030.0,045.5,0.474,739.5,01.18,0.508
2014-11-23 03:29:00,1965E-3,5C000000,-0724,0834,12206,030.0,045.5,0.475,739.5,01.18,0.508
2014-11-23 03:30:00,1849E-3,5C000000,-0724,0833,12210,030.0,045.5,0.475,739.5,01.18,0.508
2014-11-23 03:31:00,2071E-3,5C000000,-0724,0833,12336,030.0,045.5,0.474,739.5,01.18,0.508
2014-11-23 03:32:00,1892E-3,5C000000,-0724,0833,12136,030.0,045.5,0.475,739.5,01.18,0.508
2014-11-23 03:33:00,2074E-3,5C000000,-0724,0834,12263,030.0,045.5,0.475,739.4,01.18,0.508
2014-11-23 03:34:00,2073E-3,5C000000,-0724,0834,12109,030.0,045.5,0.474,739.4,01.18,0.508
2014-11-23 03:35:00,2183E-3,5C000000,-0724,0834,12099,030.0,045.5,0.474,739.4,01.18,0.508
2014-11-23 03:36:00,2079E-3,5C000000,-0724,0834,12209,030.0,045.5,0.475,739.4,01.18,0.508
2014-11-23 03:37:00,2088E-3,5C000000,-0724,0834,12230,030.0,045.5,0.475,739.4,01.18,0.508
2014-11-23 03:38:00,2086E-3,5C000000,-0724,0833,12328,030.0,045.5,0.474,739.4,01.18,0.508
2014-11-23 03:39:00,2137E-3,5C000000,-0724,0834,12345,030.0,045.5,0.474,739.4,01.18,0.508
2014-11-23 03:40:00,1989E-3,5C000000,-0724,0834,12102,029.9,045.5,0.475,739.4,01.18,0.508
2014-11-23 03:41:00,2072E-3,5C000000,-0724,0834,11899,030.0,045.5,0.475,739.4,01.18,0.508
2014-11-23 03:42:00,1981E-3,5C000000,-0724,0833,12209,029.9,045.5,0.474,739.4,01.18,0.508
2014-11-23 03:43:00,1928E-3,5C000000,-0724,0834,12261,030.0,045.5,0.474,739.5,01.18,0.508
2014-11-23 03:44:00,2043E-3,5C000000,-0724,0834,12191,029.9,045.5,0.475,739.4,01.18,0.508
2014-11-23 03:45:00,2020E-3,5C000000,-0724,0834,12211,029.9,045.5,0.475,739.4,01.18,0.508
2014-11-23 03:46:00,1993E-3,5C000000,-0724,0834,12113,029.9,045.5,0.474,739.4,01.18,0.508
2014-11-23 03:47:00,2037E-3,5C000000,-0724,0834,11937,029.9,045.5,0.475,739.4,01.18,0.508
2014-11-23 03:48:00,2009E-3,5C000000,-0724,0834,12126,029.9,045.5,0.475,739.4,01.18,0.508
2014-11-23 03:49:00,1982E-3,5C000000,-0724,0834,12228,029.9,045.5,0.474,739.4,01.18,0.508
2014-11-23 03:50:00,2048E-3,5C000000,-0724,0835,12179,029.9,045.5,0.474,739.4,01.18,0.508
2014-11-23 03:51:00,2062E-3,5C000000,-0724,0834,12256,029.9,045.5,0.475,739.4,01.18,0.508
2014-11-23 03:52:00,2080E-3,5C000000,-0724,0834,12086,029.9,045.5,0.475,739.4,01.18,0.508
2014-11-23 03:53:00,2015E-3,5C000000,-0724,0834,12196,029.9,045.5,0.474,739.4,01.18,0.508
2014-11-23 03:54:00,1989E-3,5C000000,-0724,0833,12266,029.9,045.5,0.475,739.4,01.18,0.508
2014-11-23 03:55:00,2105E-3,5C000000,-0724,0833,11985,029.9,045.5,0.475,739.4,01.18,0.508
2014-11-23 03:56:00,2119E-3,5C000000,-0724,0834,12157,029.9,045.5,0.475,739.4,01.18,0.508
2014-11-23 03:57:00,2196E-3,5C000000,-0724,0835,12226,029.9,045.5,0.474,739.4,01.18,0.508
2014-11-23 03:58:00,2214E-3,5C000000,-0724,0834,12078,029.9,045.5,0.475,739.4,01.18,0.508
2014-11-23 03:59:00,2132E-3,5C000000,-0724,0834,12316,029.9,045.5,0.475,739.4,01.18,0.508
2014-11-23 04:00:00,2143E-3,5C000000,-0724,0834,12245,029.9,045.5,0.474,739.4,01.18,0.508
2014-11-23 04:01:00,2126E-3,5C000000,-0724,0834,12263,029.9,045.5,0.475,739.4,01.18,0.508
2014-11-23 04:02:00,2133E-3,5C000000,-0724,0834,12136,029.9,045.5,0.475,739.4,01.18,0.508
2014-11-23 04:03:00,2161E-3,5C000000,-0724,0833,12152,029.9,045.5,0.475,739.4,01.18,0.508
2014-11-23 04:04:00,2303E-3,5C000000,-0724,0834,12031,029.9,045.5,0.474,739.4,01.18,0.508
2014-11-23 04:05:00,2095E-3,5C000000,-0724,0833,12165,029.9,045.5,0.475,739.4,01.18,0.508
2014-11-23 04:06:00,2130E-3,5C000000,-0724,0834,12123,029.9,045.5,0.475,739.4,01.18,0.508
2014-11-23 04:07:00,2131E-3,5C000000,-0724,0834,12200,029.9,045.5,0.474,739.4,01.18,0.508
2014-11-23 04:08:00,2027E-3,5C000000,-0724,0834,12080,029.9,045.5,0.475,739.4,01.18,0.508
2014-11-23 04:09:00,2111E-3,5C000000,-0724,0833,12231,029.9,045.5,0.475,739.4,01.18,0.508
2014-11-23 04:10:00,2194E-3,5C000000,-0724,0833,12249,029.9,045.5,0.474,739.4,01.18,0.508
2014-11-23 04:11:00,2114E-3,5C000000,-0724,0834,12105,029.9,045.5,0.474,739.4,01.18,0.508
2014-11-23 04:12:00,2230E-3,5C000000,-0724,0833,12178,029.9,045.5,0.475,739.4,01.18,0.508
2014-11-23 04:13:00,2092E-3,5C000000,-0724,0834,12150,029.9,045.5,0.475,739.4,01.18,0.508
2014-11-23 04:14:00,2047E-3,5C000000,-0724,0835,12210,029.9,045.5,0.474,739.4,01.18,0.508
2014-11-23 04:15:00,2163E-3,5C000000,-0724,0835,12155,029.9,045.5,0.475,739.4,01.18,0.508
2014-11-23 04:16:00,2212E-3,5C000000,-0724,0835,12137,029.9,045.5,0.475,739.4,01.18,0.508
2014-11-23 04:17:00,2274E-3,5C000000,-0724,0835,12146,029.8,045.5,0.474,739.4,01.18,0.508
2014-11-23 04:18:00,2300E-3,5C000000,-0724,0834,12324,029.9,045.5,0.475,739.4,01.18,0.508
2014-11-23 04:19:00,2022E-3,5C000000,-0724,0833,12013,029.8,045.5,0.475,739.4,01.18,0.508
2014-11-23 04:20:00,2200E-3,5C000000,-0724,0835,12098,029.9,045.5,0.474,739.4,01.18,0.508